Regional Weather Roundup
Issued by NWS

Home | Current Version | Previous Version | Text Only | Print | Product List | Glossary On
Versions: 1 2 3 4 5 6 7 8 9 10 11 12 13 14 15 16 17 18 19 20 21 22 23 24 25 26 27 28 29 30 31 32 33 34 35 36 37 38 39 40 41 42 43 44 45 46 47 48 49 50
938
ASUS44 KJAN 262310
RWRMS

MISSISSIPPI HOURLY WEATHER ROUNDUP
NATIONAL WEATHER SERVICE JACKSON MS
500 PM CST THU FEB 26 2015

NOTE: "FAIR: INDICATES FEW OR NO CLOUDS BELOW 12,000 FEET WITH NO
SIGNIFICANT WEATHER AND/OR OBSTRUCTIONS TO VISIBILITY.

MSZ001>002-007>008-010>013-018>021-025>028-034>036-270000-
NORTHWEST MISSISSIPPI

CITY           SKY/WX    TMP DP  RH WIND       PRES   REMARKS
CLARKSDALE     CLOUDY    32  28  86 N12G18    30.28R WCI  23
CLEVELAND      CLOUDY    34  31  88 N16       30.26R WCI  23
GREENWOOD        N/A    N/A N/A N/A MISG      30.24R
GREENVILLE     CLOUDY    35  29  78 N12       30.25R WCI  27
OLIVE BRANCH   CLOUDY    30  30 100 N14G21    30.25R WCI  20
OXFORD         CLOUDY    34  27  75 NW8       30.23R WCI  27
TUNICA         CLOUDY    32  28  86 N17       30.29R WCI  21
$$

MSZ003>006-009-014>017-022>024-029>033-037>039-270000-
NORTHEAST MISSISSIPPI

CITY           SKY/WX    TMP DP  RH WIND       PRES   REMARKS
COLUMBUS AFB   CLEAR     39  31  72 NW7       30.17S WCI  34
CORINTH        CLOUDY    41  28  60 NW12G18   30.16R
GOLDN TRIANGLE MOCLDY    37  30  75 NW9       30.17  WCI  31
STARKVILLE     FAIR      36  32  87 NW6       30.19R WCI  31
TUPELO         CLOUDY    39  32  76 VRB6      30.18R WCI  35
$$

MSZ040-058-270000-
CENTRAL MISSISSIPPI

CITY           SKY/WX    TMP DP  RH WIND       PRES   REMARKS
JACKSON INTL   CLOUDY    36  30  79 N13       30.21R WCI  27
JACKSON HAWKNS CLOUDY    35  29  78 N8        30.21R WCI  29
MERIDIAN KEY   CLEAR     46  27  47 N13       30.14R
MERIDIAN NAS   PTCLDY    45  28  51 N12       30.16R
VICKSBURG      CLOUDY    36  31  82 N14       30.24R WCI  27
$$

MSZ059>079-270000-
SOUTH MISSISSIPPI

CITY           SKY/WX    TMP DP  RH WIND       PRES   REMARKS
BROOKHAVEN     FAIR      45  34  65 NW9       30.16R
HATTIESBURG    SUNNY     50  29  44 N14       30.13R
MCCOMB         MOSUNNY   48  32  53 N14       30.14R
NATCHEZ        CLOUDY    39  30  70 N13       30.21R WCI  32
PINE BELT      SUNNY     46  28  49 N10G18    30.14R
$$

MSZ080>082-270000-
COASTAL MISSISSIPPI

CITY           SKY/WX    TMP DP  RH WIND       PRES   REMARKS
BILOXI         MOSUNNY   48  35  59 N12       30.09R
PASCAGOULA     PTCLDY    48  35  60 N9        30.09R
GULFPORT       MOSUNNY   48  34  58 N13       30.09R
$$



USA.gov is the U.S. government's official web portal to all federal, state and local government web resources and services.